Home > Weather > Stavern > Past weeks

Flag for Norway Past Weather in Stavern, Norway — Yesterday and Last 2 Weeks

Now
55 °F

Cool.


Feels Like: 53 °F
Forecast: 55 / 69 °F
Wind: 8 mph from West

Location: Torp

Current Time: Jul 31, 2016 at 2:33:05 AM

Latest Report: Jul 31, 2016 at 1:50 AM


Visibility: N/A

Pressure: 29.65 "Hg

Humidity: 72%

Dew Point: 46 °F

Location of StavernLocation

Past Weather in Stavern — Graph

°F

Stavern Temperature Yesterday

Maximum temperature yesterday: 70 °F (at 4:50 PM)
Minimum temperature yesterday: 54 °F (at 4:20 AM)
Average temperature yesterday: 61 °F

High & Low Weather Summary for the Past Weeks

 TemperatureHumidityPressure
High75 °F (Jul 21, 1:20 PM)100% (Jul 16, 1:20 AM)30.15 "Hg (Jul 16, 1:20 AM)
Low50 °F (Jul 17, 4:50 AM)40% (Jul 30, 5:20 PM)29.62 "Hg (Jul 30, 5:50 PM)
Average63 °F84%29.94 "Hg
* Reported Jul 16 1:20 AM — Jul 31 1:20 AM, Stavern, Weather by CustomWeather, © 2016

Note: Actual official high and low records may vary slightly from our data, if they occured in-between our weather recording intervals... More about our weather records

Advertising

Stavern Weather History for the Previous 24 Hours

Scroll right to see more
 ConditionsComfort  
Time TempWeatherWind HumidityBarometerVisibility
1:20 AM
Sun, Jul 31
55 °FCool.8 mph77%29.65 "HgN/A
12:50 AM55 °FCool.8 mph77%29.65 "HgN/A
12:20 AM55 °FCool.6 mph77%29.65 "HgN/A
11:50 PM
Sat, Jul 30
57 °FCool.6 mph72%29.65 "HgN/A
11:20 PM57 °FCool.7 mph72%29.65 "HgN/A
10:50 PM59 °FClear.10 mph63%29.65 "Hg10 mi
10:20 PM61 °FSunny.9 mph59%29.65 "Hg10 mi
9:50 PM61 °FPassing clouds.6 mph63%29.65 "HgN/A
9:20 PM63 °FSunny.7 mph59%29.65 "Hg10 mi
8:50 PM64 °FSunny.9 mph56%29.65 "Hg10 mi
8:20 PM66 °FPassing clouds.8 mph49%29.65 "HgN/A
7:50 PM68 °FSunny.8 mph49%29.65 "Hg10 mi
7:20 PM68 °FPassing clouds.9 mph46%29.65 "HgN/A
6:50 PM68 °FPassing clouds.9 mph46%29.65 "HgN/A
6:20 PM68 °FPassing clouds.12 mph43%29.65 "HgN/A
5:50 PM68 °FPassing clouds.10 mph46%29.62 "HgN/A
5:20 PM70 °FPassing clouds.12 mph40%29.65 "HgN/A
4:50 PM70 °FPassing clouds.8 mph53%29.65 "HgN/A
4:20 PM68 °FPassing clouds.14 mph60%29.65 "HgN/A
3:50 PM68 °FPassing clouds.14 mph60%29.65 "HgN/A
3:20 PM68 °FPassing clouds.14 mph60%29.65 "HgN/A
2:50 PM66 °FScattered clouds.15 mph64%29.65 "HgN/A
2:20 PM66 °FScattered clouds.10 mph73%29.65 "HgN/A
1:50 PM66 °FScattered clouds.9 mph68%29.65 "HgN/A
1:20 PM66 °FScattered clouds.9 mph68%29.65 "HgN/A
12:50 PM66 °FScattered clouds.7 mph68%29.65 "HgN/A
12:20 PM66 °FScattered clouds.6 mph73%29.65 "HgN/A
11:50 AM64 °FScattered clouds.5 mph78%29.65 "HgN/A
11:20 AM63 °FScattered clouds.7 mph88%29.65 "HgN/A
10:50 AM63 °FScattered clouds.5 mph88%29.65 "HgN/A
10:20 AM61 °FBroken clouds.6 mph94%29.65 "HgN/A
9:50 AM61 °FPartly sunny.6 mph94%29.65 "HgN/A
9:20 AM61 °FPartly sunny.5 mph94%29.65 "HgN/A
8:50 AM59 °FPartly sunny.3 mph100%29.65 "HgN/A
8:20 AM57 °FPartly sunny.5 mph100%29.65 "HgN/A
7:50 AM55 °FPartly sunny.6 mph100%29.65 "Hg5 mi
7:20 AM55 °FFog.5 mph100%29.65 "Hg6 mi
6:50 AM55 °FFog.5 mph100%29.65 "Hg4 mi
6:20 AM54 °FFog.7 mph100%29.65 "Hg3 mi
5:50 AM54 °FFog.5 mph100%29.65 "Hg3 mi
5:20 AM54 °FPassing clouds.5 mph100%29.65 "HgN/A
4:50 AM54 °FMostly cloudy.3 mph100%29.65 "HgN/A
4:20 AM54 °FOvercast.2 mph100%29.65 "Hg4 mi
3:50 AM55 °FPassing clouds.3 mph100%29.65 "HgN/A
3:20 AM55 °FPassing clouds.3 mph100%29.65 "HgN/A
2:50 AM55 °FMostly cloudy.6 mph100%29.68 "HgN/A
2:20 AM57 °FPartly cloudy.6 mph100%29.68 "HgN/A
Weather by CustomWeather, © 2016

See weather overviewHow to use our weather pages